Regional Weather Roundup
Issued by NWS

Home | Current Version | Previous Version | Graphics & Text | Print | Product List | Glossary On
Versions: 1 2 3 4 5 6 7 8 9 10 11 12 13 14 15 16 17 18 19 20 21 22 23 24 25 26 27 28 29 30 31 32 33 34 35 36 37 38 39 40 41 42 43 44 45 46 47 48 49 50
075
ASUS43 KMKX 241400
RWRWI

WISCONSIN REGIONAL WEATHER ROUNDUP
NATIONAL WEATHER SERVICE MILWAUKEE/SULLIVAN WI
900 AM CDT MON JUL 24 2017

NOTE: "FAIR" INDICATES FEW OR NO CLOUDS BELOW 12,000 FEET WITH NO
SIGNIFICANT WEATHER AND/OR OBSTRUCTIONS TO VISIBILITY.

WIZ001-002-006>008-014>016-023>028-241500-
NORTHWEST WISCONSIN

CITY           SKY/WX    TMP DP  RH WIND       PRES   REMARKS
SUPERIOR ARPT  NOT AVBL
ASHLAND        CLOUDY    55  55 100 CALM      30.12R FOG
HAYWARD        SUNNY     61  55  81 CALM      30.11S
SIREN          CLOUDY    57  56  98 CALM      30.10S FOG
CUMBERLAND     CLOUDY    54  54 100 E3        30.10S FOG
RICE LAKE      MOSUNNY   57  56  98 E9        30.13R
CHETEK         CLOUDY    57  55  93 SE3       30.11R
LADYSMITH      CLOUDY    55  53  94 E7        30.14R
EAU CLAIRE     NOT AVBL
MENOMONIE      MOSUNNY   63  58  83 NE7       30.10S
NEW RICHMOND   SUNNY     63  58  84 E8        30.09R
OSCEOLA        SUNNY     63  57  81 SE5       30.12R
$$

WIZ003>005-009-010-017-018-241500-
NORTH CENTRAL WISCONSIN

CITY           SKY/WX    TMP DP  RH WIND       PRES   REMARKS
MANITOWISH WTR SUNNY     59  56  88 SE5       30.12S
ARBOR VITAE    SUNNY     59  55  84 CALM      30.12S
WOODRUFF       SUNNY     59  55  84 CALM      30.12S
RHINELANDER    SUNNY     56  53  90 CALM      30.13S
EAGLE RIVER    SUNNY     56  56 100 CALM      30.12S
LAND O LAKES   SUNNY     61  54  77 CALM      30.14S
PHILLIPS       PTSUNNY   57  54  91 E3        30.12S
TOMAHAWK         N/A     55  52  91 CALM      30.13S
MEDFORD        CLOUDY    56  53  89 E5        30.12R
MERRILL        NOT AVBL
$$

WIZ029-030-035-036-043>047-241500-
CENTRAL WISCONSIN

CITY           SKY/WX    TMP DP  RH WIND       PRES   REMARKS
WAUSAU         MOSUNNY   61  53  75 MISG      30.10S
MOSINEE        PTSUNNY   61  55  82 E5        30.12R
MARSHFIELD     PTSUNNY   63  54  72 E7        30.09S
STEVENS POINT  MOSUNNY   60  54  81 E10       30.10S
WAUPACA        PTSUNNY   66  57  72 N7        30.10R
WAUTOMA        CLOUDY    63  57  81 NE8       30.09R
WISC RAPIDS    CLOUDY    64  55  72 NE7       30.10R
CAMP DOUGLAS   NOT AVBL
$$

WIZ011>013-019>022-031-037>040-048>050-241500-
NORTHEAST WISCONSIN

CITY           SKY/WX    TMP DP  RH WIND       PRES   REMARKS
ANTIGO         MOSUNNY   57  53  84 CALM      30.12F
SHAWANO        MOSUNNY   65  56  70 NE3       30.10R
OCONTO         SUNNY     62  54  74 N5        30.09R
STURGEON BAY     N/A     64  56  75 MISG      30.08S
GREEN BAY      PTSUNNY   64  58  80 N9        30.09R
MANITOWOC      NOT AVBL
APPLETON       PTSUNNY   63  54  72 N10       30.07R
CLINTONVILLE   MOSUNNY  N/A N/A N/A N6        30.09S
OSHKOSH        MOSUNNY   65  55  70 NE12      30.07R
$$

WIZ032>034-041-042-053>061-241500-
SOUTHWEST WISCONSIN

CITY           SKY/WX    TMP DP  RH WIND       PRES   REMARKS
LA CROSSE      CLOUDY    64  56  75 NE7       30.09R
SPARTA         CLOUDY    61  55  81 E8        30.10R
VIROQUA        CLOUDY    60  57  92 CALM      30.09R
BOSCOBEL       MOSUNNY   68  57  68 E5        30.08R
PRAIRIE DU CHI PTSUNNY   64  56  74 NE6       30.07R
PLATTEVILLE    SUNNY     65  61  88 NE9       30.06R
$$

WIZ056-057-062-063-064-067-068-241500-
SOUTH CENTRAL WISCONSIN

CITY           SKY/WX    TMP DP  RH WIND       PRES   REMARKS
REEDSBURG      CLOUDY    63  58  84 NE6       30.08R
BARABOO/DELLS  CLOUDY    63  55  76 NE6       30.08R
LONE ROCK      NOT AVBL
MINERAL POINT  MOSUNNY   64  61  88 NE7       30.07R
MADISON        CLOUDY    64  57  78 NE12      30.06R
MIDDLETON      CLOUDY    65  60  83 NE7       30.07R
WATERTOWN      CLOUDY    64  59  85 N9        30.05R
MONROE         SUNNY     64  57  77 NE10      30.04R
JANESVILLE     PTSUNNY   68  59  73 NE12G17   30.04R
$$

WIZ051-052-058>065-066-070>072-241500-
SOUTHEAST WISCONSIN

CITY           SKY/WX    TMP DP  RH WIND       PRES   REMARKS
MILWAUKEE      PTSUNNY   68  56  65 N14G21    30.03R
WAUKESHA       CLOUDY    63  55  77 N10       30.05R
MILWAUKEE/TIMM CLOUDY    64  55  72 N12       30.05R
RACINE         CLOUDY    67  59  75 NE17      30.05R
KENOSHA        CLOUDY    67  57  70 NE14      30.03R
FOND DU LAC    PTSUNNY   66  54  65 NE9       30.07R
SHEBOYGAN      PTSUNNY   66  59  78 NE12      30.06R
WEST BEND      CLOUDY    63  55  77 NE9       30.05S
JUNEAU         CLOUDY    63  54  73 NE9       30.07R
$$

LSZ147-162-241500-
LAKE SUPERIOR

STATION/POSITION TIME  TEMP    WIND        PRES    WAVE
                       AIR SEA DIR/SP/G            HT/PER
                 (UTC) (F)     (DEG/KT/KT) (MB)    (FT/S)
W MID LAKE BUOY  1250   48 48  240/  4/  6 1019.6R   1
DEVILS ISLAND    1300   54     230/  2/  3 1019.9R
PORT WING        1300   54     120/  3/  9 1019.6
SAXON HARBOR     1340   57     310/  3/  5 1019.3R
$$

LMZ867-665-643>646-241500-
LAKE MICHIGAN

STATION/POSITION TIME  TEMP    WIND        PRES    WAVE
                       AIR SEA DIR/SP/G            HT/PER
                 (UTC) (F)     (DEG/KT/KT) (MB)    (FT/S)
CHAMBERS ISLAND  1340   63     360/ 13/ 15 1018.3R
S GREEN BAY BUOY 1330   62 72   30/ 12/ 14 1018.3R
N MID LAKE BUOY  1250   61 65   10/ 16/ 17 1018.0R   3/ 5
NORTHPORT PIER   1330   62     350/ 11/ 14 1018.3S
KEWAUNEE LAKESHO 1330   65      10/  8/ 11 1017.2R
SHEBOYGAN LAKESH 1300   64      10/ 17/ 20 1017.1R
PORT WASHINGTON  1330   67      40/ 14/ 20 1018.3R
ATWATER BUOY     1209   66 67   30/ 19/ 23 1016.6R
MILWAUKEE LAKESH 1340   66      40/ 18/ 20   N/A
S MID LAKE BUOY  1250   67 69   20/ 16/ 19 1015.4R   5/ 7
KENOSHA   LAKESH 1300   66      20/ 21/ 24 1015.9
$$

TC  - TEMPERATURE IN CELSIUS
VSB - VISIBILITY IN STATUTE MILES
WCI - WIND CHILL INDEX
HX  - HEAT INDEX





USA.gov is the U.S. government's official web portal to all federal, state and local government web resources and services.